When you browse on this site, cookies collect data to enhance your experience and personalize the content and advertising you see.
Visit our Privacy Policy to learn more. By continuing to use the site, you agree to this use of cookies and data.
  • Em Portugal
  • Lista de países
  • Para 7 dias
  • Temperatura da água
  • Mapa do tempo
  • Widgets de tempo
  • user-avatar
    Iniciar Sessão

    Previsão horária em Pirr

    Hoje, 8 Abril, Quarta-feira

    Tempo Temperatura Precipitação Vento Pressão Humidade
    00:00 +12°C° 0 mm 4 m/s 715 mmHg 52%
    01:00 +11°C° 0 mm 4 m/s 716 mmHg 53%
    02:00 +11°C° 0 mm 3 m/s 716 mmHg 54%
    03:00 +10°C° 0 mm 4 m/s 717 mmHg 56%
    04:00 +8°C° 0 mm 5 m/s 718 mmHg 58%
    05:00 +7°C° 0 mm 6 m/s 719 mmHg 60%
    06:00 +6°C° 0.1 mm 7 m/s 719 mmHg 56%
    07:00 +6°C° 0.1 mm 7 m/s 720 mmHg 53%
    08:00 +6°C° 0.1 mm 7 m/s 721 mmHg 49%
    09:00 +7°C° 0 mm 8 m/s 721 mmHg 44%
    10:00 +7°C° 0 mm 9 m/s 721 mmHg 40%
    11:00 +8°C° 0 mm 10 m/s 722 mmHg 35%
    12:00 +8°C° 0 mm 10 m/s 721 mmHg 32%
    13:00 +9°C° 0 mm 11 m/s 721 mmHg 28%
    14:00 +9°C° 0 mm 11 m/s 721 mmHg 25%
    15:00 +8°C° 0 mm 11 m/s 721 mmHg 25%
    16:00 +8°C° 0 mm 11 m/s 720 mmHg 26%
    17:00 +7°C° 0 mm 10 m/s 720 mmHg 27%
    18:00 +6°C° 0 mm 9 m/s 720 mmHg 30%
    19:00 +5°C° 0 mm 7 m/s 721 mmHg 34%
    20:00 +5°C° 0 mm 5 m/s 721 mmHg 38%
    21:00 +3°C° 0 mm 5 m/s 721 mmHg 38%
    22:00 +3°C° 0 mm 5 m/s 721 mmHg 39%
    23:00 +3°C° 0 mm 4 m/s 721 mmHg 39%

    Amanhã, 9 Abril, Quinta-feira

    Tempo Temperatura Precipitação Vento Pressão Humidade
    00:00 +1°C° 0 mm 5 m/s 721 mmHg 41%
    01:00 +1°C° 0 mm 5 m/s 721 mmHg 42%
    02:00 +1°C° 0 mm 6 m/s 721 mmHg 44%
    03:00 0°C° 0 mm 5 m/s 721 mmHg 46%
    04:00 0°C° 0 mm 5 m/s 721 mmHg 48%
    05:00 0°C° 0 mm 5 m/s 722 mmHg 50%
    06:00 -1°C° 0 mm 7 m/s 722 mmHg 45%
    07:00 0°C° 0 mm 8 m/s 722 mmHg 41%
    08:00 +1°C° 0 mm 10 m/s 722 mmHg 37%
    09:00 +1°C° 0 mm 10 m/s 722 mmHg 37%
    10:00 +1°C° 0 mm 10 m/s 722 mmHg 36%
    11:00 +2°C° 0 mm 10 m/s 722 mmHg 36%
    12:00 +2°C° 0 mm 9 m/s 722 mmHg 35%
    13:00 +2°C° 0 mm 9 m/s 723 mmHg 34%
    14:00 +4°C° 0 mm 8 m/s 723 mmHg 32%
    15:00 +3°C° 0 mm 7 m/s 723 mmHg 32%
    16:00 +3°C° 0 mm 6 m/s 723 mmHg 31%
    17:00 +3°C° 0 mm 5 m/s 723 mmHg 30%
    18:00 +3°C° 0 mm 4 m/s 723 mmHg 34%
    19:00 +3°C° 0 mm 2 m/s 723 mmHg 39%
    20:00 +2°C° 0 mm 1 m/s 723 mmHg 44%
    21:00 +2°C° 0 mm 1 m/s 723 mmHg 44%
    22:00 +2°C° 0 mm 1 m/s 723 mmHg 45%
    23:00 -1°C° 0 mm 2 m/s 723 mmHg 46%

    Depois de amanhã, 10 Abril, Sexta-feira

    Tempo Temperatura Precipitação Vento Pressão Humidade
    00:00 -1°C° 0 mm 2 m/s 722 mmHg 47%
    01:00 -2°C° 0 mm 2 m/s 722 mmHg 48%
    02:00 -2°C° 0 mm 3 m/s 721 mmHg 49%
    03:00 -2°C° 0 mm 3 m/s 721 mmHg 49%
    04:00 -2°C° 0 mm 3 m/s 720 mmHg 49%
    05:00 -2°C° 0 mm 3 m/s 720 mmHg 49%
    06:00 -1°C° 0 mm 4 m/s 719 mmHg 44%
    07:00 +1°C° 0 mm 5 m/s 718 mmHg 40%
    08:00 +2°C° 0 mm 7 m/s 717 mmHg 36%
    09:00 +4°C° 0 mm 6 m/s 717 mmHg 36%
    10:00 +7°C° 0 mm 6 m/s 716 mmHg 36%
    11:00 +9°C° 0 mm 6 m/s 715 mmHg 37%
    12:00 +11°C° 0 mm 6 m/s 714 mmHg 37%
    13:00 +13°C° 0 mm 5 m/s 713 mmHg 37%
    14:00 +14°C° 0 mm 4 m/s 712 mmHg 37%
    15:00 +13°C° 0 mm 5 m/s 712 mmHg 41%
    16:00 +12°C° 0 mm 5 m/s 712 mmHg 44%
    17:00 +10°C° 0 mm 6 m/s 712 mmHg 48%
    18:00 +8°C° 0 mm 6 m/s 713 mmHg 57%
    19:00 +5°C° 0 mm 6 m/s 714 mmHg 66%
    20:00 +3°C° 0 mm 6 m/s 714 mmHg 75%
    21:00 +3°C° 0 mm 5 m/s 715 mmHg 79%
    22:00 +3°C° 0 mm 4 m/s 715 mmHg 83%
    23:00 +3°C° 0 mm 3 m/s 716 mmHg 87%

    11 Abril, Sábado

    Tempo Temperatura Precipitação Vento Pressão Humidade
    00:00 +3°C° 0 mm 3 m/s 716 mmHg 84%
    01:00 +3°C° 0 mm 4 m/s 716 mmHg 81%
    02:00 +3°C° 0 mm 4 m/s 716 mmHg 78%
    03:00 +2°C° 0 mm 3 m/s 716 mmHg 82%
    04:00 +1°C° 0 mm 3 m/s 716 mmHg 86%
    05:00 +1°C° 0 mm 2 m/s 716 mmHg 89%
    06:00 +3°C° 0 mm 2 m/s 716 mmHg 82%
    07:00 +4°C° 0 mm 2 m/s 716 mmHg 74%
    08:00 +5°C° 0 mm 2 m/s 716 mmHg 67%
    09:00 +6°C° 0 mm 2 m/s 716 mmHg 59%
    10:00 +8°C° 0 mm 3 m/s 715 mmHg 50%
    11:00 +9°C° 0 mm 3 m/s 715 mmHg 42%
    12:00 +10°C° 0 mm 3 m/s 715 mmHg 41%
    13:00 +10°C° 0 mm 3 m/s 714 mmHg 39%
    14:00 +11°C° 0 mm 3 m/s 714 mmHg 38%
    15:00 +10°C° 0 mm 4 m/s 714 mmHg 41%
    16:00 +9°C° 0 mm 5 m/s 713 mmHg 45%
    17:00 +8°C° 0 mm 5 m/s 713 mmHg 48%
    18:00 +7°C° 0.1 mm 6 m/s 714 mmHg 58%
    19:00 +5°C° 0.1 mm 6 m/s 714 mmHg 67%
    20:00 +4°C° 0.1 mm 7 m/s 714 mmHg 77%
    21:00 +2°C° 0.6 mm 7 m/s 714 mmHg 82%
    22:00 0°C° 0.6 mm 8 m/s 715 mmHg 88%
    23:00 -1°C° 0.6 mm 8 m/s 715 mmHg 93%

    12 Abril, Domingo

    Tempo Temperatura Precipitação Vento Pressão Humidade
    00:00 -1°C° 1 mm 8 m/s 715 mmHg 94%
    01:00 -2°C° 1 mm 8 m/s 715 mmHg 94%
    02:00 -4°C° 1 mm 9 m/s 716 mmHg 95%
    03:00 -5°C° 1 mm 9 m/s 717 mmHg 95%
    04:00 -5°C° 1 mm 10 m/s 718 mmHg 94%
    05:00 -7°C° 1 mm 10 m/s 719 mmHg 93%
    06:00 -8°C° 0.6 mm 10 m/s 719 mmHg 90%
    07:00 -8°C° 0.6 mm 9 m/s 720 mmHg 86%
    08:00 -8°C° 0.6 mm 9 m/s 721 mmHg 83%
    09:00 -8°C° 0.1 mm 9 m/s 721 mmHg 77%
    10:00 -6°C° 0.1 mm 9 m/s 721 mmHg 71%
    11:00 -5°C° 0.1 mm 9 m/s 722 mmHg 66%
    12:00 -5°C° 0.1 mm 9 m/s 722 mmHg 65%
    13:00 -5°C° 0.1 mm 9 m/s 722 mmHg 64%
    14:00 -5°C° 0.1 mm 9 m/s 722 mmHg 64%
    15:00 -5°C° 0 mm 8 m/s 721 mmHg 64%
    16:00 -5°C° 0 mm 8 m/s 721 mmHg 63%
    17:00 -4°C° 0 mm 7 m/s 721 mmHg 63%
    18:00 -6°C° 0 mm 7 m/s 721 mmHg 67%
    19:00 -6°C° 0 mm 6 m/s 721 mmHg 71%
    20:00 -8°C° 0 mm 6 m/s 722 mmHg 75%
    21:00 -8°C° 0 mm 6 m/s 722 mmHg 76%
    22:00 -9°C° 0 mm 6 m/s 722 mmHg 77%
    23:00 -9°C° 0 mm 6 m/s 722 mmHg 78%

    13 Abril, Segunda-feira

    Tempo Temperatura Precipitação Vento Pressão Humidade
    00:00 -9°C° 0 mm 6 m/s 721 mmHg 79%
    01:00 -10°C° 0 mm 6 m/s 721 mmHg 80%
    02:00 -10°C° 0 mm 6 m/s 720 mmHg 81%
    03:00 -10°C° 0 mm 6 m/s 721 mmHg 81%
    04:00 -10°C° 0 mm 6 m/s 721 mmHg 81%
    05:00 -10°C° 0 mm 6 m/s 721 mmHg 81%
    06:00 -9°C° 0.1 mm 7 m/s 721 mmHg 74%
    07:00 -10°C° 0.1 mm 8 m/s 721 mmHg 67%
    08:00 -9°C° 0.1 mm 9 m/s 721 mmHg 60%
    09:00 -9°C° 0.1 mm 9 m/s 721 mmHg 58%
    10:00 -8°C° 0.1 mm 9 m/s 721 mmHg 57%
    11:00 -8°C° 0.1 mm 9 m/s 721 mmHg 55%
    12:00 -8°C° 0 mm 9 m/s 721 mmHg 54%
    13:00 -6°C° 0 mm 9 m/s 721 mmHg 53%
    14:00 -7°C° 0 mm 10 m/s 721 mmHg 52%
    15:00 -6°C° 0 mm 9 m/s 721 mmHg 53%
    16:00 -6°C° 0 mm 8 m/s 721 mmHg 54%
    17:00 -6°C° 0 mm 8 m/s 721 mmHg 55%
    18:00 -7°C° 0 mm 7 m/s 722 mmHg 58%
    19:00 -8°C° 0 mm 6 m/s 722 mmHg 62%
    20:00 -8°C° 0 mm 5 m/s 722 mmHg 66%
    21:00 -8°C° 0 mm 5 m/s 723 mmHg 68%
    22:00 -8°C° 0 mm 5 m/s 723 mmHg 70%
    23:00 -10°C° 0 mm 5 m/s 723 mmHg 73%
    Mostrar mais